| time (UTC) | temp F | wind direction | speed knots | gust knots | rain 1hr in | rain 24hr in | rain mn in | humidity % | barometer mb |
| 20260504050503 | 50 | 191 | 0.0 | 0.0 | 0.00 | 0.04 | 0.00 | 75 | 1005.5 |
| 20260504050006 | 50 | 191 | 0.0 | 0.0 | 0.00 | 0.04 | 0.00 | 72 | 1005.5 |
| 20260504045503 | 50 | 191 | 0.0 | 0.0 | 0.00 | 0.04 | 0.04 | 74 | 1005.5 |
| 20260504045005 | 50 | 191 | 0.0 | 0.0 | 0.00 | 0.04 | 0.04 | 74 | 1005.4 |
| 20260504044511 | 50 | 191 | 0.0 | 0.0 | 0.00 | 0.04 | 0.04 | 74 | 1005.4 |
| 20260504044006 | 50 | 191 | 0.0 | 0.0 | 0.00 | 0.04 | 0.04 | 76 | 1005.4 |
| 20260504043504 | 50 | 191 | 0.0 | 1.7 | 0.00 | 0.04 | 0.04 | 76 | 1005.4 |
| 20260504043012 | 50 | 191 | 0.0 | 1.7 | 0.00 | 0.04 | 0.04 | 76 | 1005.4 |
| 20260504042504 | 51 | 191 | 0.0 | 1.7 | 0.00 | 0.04 | 0.04 | 77 | 1005.4 |
| 20260504042004 | 51 | 191 | 0.0 | 0.0 | 0.00 | 0.04 | 0.04 | 77 | 1005.4 |
| 20260504041508 | 51 | 191 | 0.0 | 0.0 | 0.00 | 0.04 | 0.04 | 76 | 1005.4 |
| 20260504041003 | 51 | 191 | 0.0 | 0.0 | 0.00 | 0.04 | 0.04 | 74 | 1005.4 |
| 20260504040503 | 52 | 191 | 0.0 | 0.0 | 0.00 | 0.04 | 0.04 | 74 | 1005.4 |
| 20260504040011 | 52 | 191 | 0.0 | 0.0 | 0.00 | 0.04 | 0.04 | 74 | 1005.4 |
| 20260504035503 | 52 | 191 | 0.0 | 0.0 | 0.00 | 0.04 | 0.04 | 73 | 1005.4 |
| 20260504035003 | 53 | 191 | 0.0 | 0.0 | 0.00 | 0.04 | 0.04 | 73 | 1005.4 |
| 20260504034510 | 53 | 191 | 0.0 | 0.0 | 0.00 | 0.04 | 0.04 | 73 | 1005.4 |
| 20260504034004 | 53 | 191 | 0.0 | 0.0 | 0.00 | 0.04 | 0.04 | 73 | 1005.4 |
| 20260504033504 | 54 | 191 | 0.0 | 0.0 | 0.00 | 0.04 | 0.04 | 72 | 1005.4 |
| 20260504033012 | 54 | 191 | 0.0 | 0.0 | 0.00 | 0.04 | 0.04 | 72 | 1005.4 |
| 20260504032504 | 55 | 191 | 0.0 | 0.0 | 0.00 | 0.04 | 0.04 | 70 | 1005.4 |
| 20260504032004 | 55 | 191 | 0.0 | 0.0 | 0.00 | 0.04 | 0.04 | 69 | 1005.4 |
| 20260504031511 | 55 | 191 | 0.0 | 0.0 | 0.00 | 0.04 | 0.04 | 67 | 1005.4 |
| 20260504031004 | 56 | 191 | 0.0 | 0.0 | 0.00 | 0.04 | 0.04 | 67 | 1005.4 |
| 20260504030504 | 56 | 191 | 0.0 | 0.0 | 0.00 | 0.04 | 0.04 | 66 | 1005.2 |
| 20260504030014 | 56 | 191 | 0.0 | 0.0 | 0.00 | 0.04 | 0.04 | 66 | 1005.3 |
| 20260504025504 | 57 | 191 | 0.0 | 0.0 | 0.00 | 0.04 | 0.04 | 66 | 1005.3 |
| 20260504025006 | 57 | 191 | 0.0 | 0.0 | 0.00 | 0.04 | 0.04 | 65 | 1005.2 |
| 20260504024509 | 58 | 191 | 0.0 | 0.0 | 0.00 | 0.04 | 0.04 | 64 | 1005.3 |
| 20260504024003 | 58 | 191 | 0.0 | 0.0 | 0.00 | 0.04 | 0.04 | 63 | 1005.2 |
| 20260504023504 | 59 | 191 | 0.0 | 0.0 | 0.00 | 0.04 | 0.04 | 61 | 1005.3 |
| 20260504023012 | 60 | 191 | 0.0 | 0.0 | 0.00 | 0.04 | 0.04 | 61 | 1005.2 |
| 20260504022508 | 60 | 191 | 0.0 | 0.0 | 0.00 | 0.04 | 0.04 | 59 | 1005.2 |
| 20260504022004 | 61 | 191 | 0.0 | 1.7 | 0.00 | 0.04 | 0.04 | 58 | 1005.2 |
| 20260504021513 | 61 | 191 | 0.0 | 1.7 | 0.00 | 0.04 | 0.04 | 58 | 1005.1 |
| 20260504021004 | 62 | 192 | 0.0 | 2.6 | 0.00 | 0.04 | 0.04 | 57 | 1005.1 |
| 20260504020504 | 62 | 205 | 0.9 | 2.6 | 0.00 | 0.04 | 0.04 | 57 | 1005.1 |
| 20260504020013 | 62 | 239 | 0.9 | 2.6 | 0.00 | 0.04 | 0.04 | 57 | 1005.1 |
| 20260504015504 | 62 | 269 | 0.9 | 2.6 | 0.00 | 0.04 | 0.04 | 55 | 1005.0 |
| 20260504015004 | 63 | 261 | 0.0 | 1.7 | 0.00 | 0.04 | 0.04 | 55 | 1005.0 |
| 20260504014514 | 63 | 217 | 0.0 | 1.7 | 0.00 | 0.04 | 0.04 | 54 | 1004.9 |
| 20260504014003 | 64 | 217 | 0.0 | 1.7 | 0.00 | 0.04 | 0.04 | 53 | 1004.9 |
| 20260504013503 | 64 | 212 | 0.0 | 1.7 | 0.00 | 0.04 | 0.04 | 52 | 1004.8 |
| 20260504013018 | 65 | 213 | 0.0 | 5.2 | 0.00 | 0.04 | 0.04 | 51 | 1004.7 |
| 20260504012504 | 65 | 199 | 0.9 | 5.2 | 0.00 | 0.04 | 0.04 | 50 | 1004.6 |
| 20260504012005 | 65 | 188 | 1.7 | 5.2 | 0.00 | 0.04 | 0.04 | 49 | 1004.5 |
| 20260504011507 | 66 | 245 | 0.9 | 7.0 | 0.00 | 0.04 | 0.04 | 48 | 1004.6 |
| 20260504011007 | 66 | 251 | 0.9 | 7.0 | 0.00 | 0.04 | 0.04 | 48 | 1004.5 |
| 20260504010505 | 66 | 250 | 0.9 | 3.5 | 0.00 | 0.04 | 0.04 | 46 | 1004.5 |
| 20260504010014 | 67 | 240 | 1.7 | 4.3 | 0.00 | 0.04 | 0.04 | 46 | 1004.4 |
| 20260504005504 | 67 | 221 | 0.9 | 7.0 | 0.00 | 0.04 | 0.04 | 45 | 1004.3 |
| 20260504005004 | 67 | 215 | 0.9 | 7.0 | 0.00 | 0.04 | 0.04 | 46 | 1004.3 |
| 20260504004531 | 68 | 161 | 1.7 | 5.2 | 0.00 | 0.04 | 0.04 | 47 | 1004.3 |
| 20260504004003 | 69 | 227 | 0.0 | 1.7 | 0.00 | 0.04 | 0.04 | 46 | 1004.3 |
| 20260504003505 | 69 | 227 | 0.0 | 1.7 | 0.00 | 0.04 | 0.04 | 45 | 1004.3 |
| 20260504003005 | 70 | 227 | 0.0 | 1.7 | 0.00 | 0.04 | 0.04 | 44 | 1004.3 |
| 20260504002504 | 70 | 227 | 0.0 | 1.7 | 0.00 | 0.04 | 0.04 | 43 | 1004.3 |
| 20260504002005 | 71 | 238 | 0.0 | 1.7 | 0.00 | 0.04 | 0.04 | 41 | 1004.3 |
| 20260504001512 | 71 | 211 | 0.0 | 1.7 | 0.00 | 0.04 | 0.04 | 39 | 1004.3 |
| 20260504001005 | 71 | 224 | 0.0 | 2.6 | 0.00 | 0.04 | 0.04 | 40 | 1004.4 |
| 20260504000504 | 71 | 242 | 0.9 | 2.6 | 0.00 | 0.04 | 0.04 | 40 | 1004.4 |
| 20260504000004 | 71 | 184 | 0.9 | 2.6 | 0.00 | 0.04 | 0.04 | 39 | 1004.4 |
| 20260503235504 | 71 | 257 | 0.0 | 2.6 | 0.00 | 0.04 | 0.04 | 39 | 1004.4 |
| 20260503235003 | 71 | 204 | 0.9 | 2.6 | 0.00 | 0.04 | 0.04 | 39 | 1004.4 |
| 20260503234518 | 72 | 226 | 0.9 | 3.5 | 0.00 | 0.04 | 0.04 | 40 | 1004.4 |
| 20260503234005 | 72 | 232 | 0.9 | 6.1 | 0.00 | 0.04 | 0.04 | 40 | 1004.4 |
| 20260503233504 | 72 | 252 | 1.7 | 6.1 | 0.00 | 0.04 | 0.04 | 39 | 1004.4 |
| 20260503233014 | 72 | 182 | 1.7 | 6.1 | 0.00 | 0.04 | 0.04 | 37 | 1004.3 |
| 20260503232506 | 72 | 236 | 1.7 | 5.2 | 0.00 | 0.04 | 0.04 | 38 | 1004.4 |
| 20260503232002 | 72 | 191 | 0.9 | 6.1 | 0.00 | 0.04 | 0.04 | 38 | 1004.4 |
| 20260503231512 | 72 | 256 | 2.6 | 6.1 | 0.00 | 0.04 | 0.04 | 38 | 1004.4 |
| 20260503231004 | 71 | 186 | 0.9 | 7.0 | 0.00 | 0.04 | 0.04 | 38 | 1004.4 |
| 20260503230506 | 71 | 215 | 3.5 | 7.0 | 0.00 | 0.04 | 0.04 | 39 | 1004.5 |
| 20260503230007 | 72 | 204 | 1.7 | 7.0 | 0.00 | 0.04 | 0.04 | 38 | 1004.5 |
| 20260503225503 | 72 | 260 | 3.5 | 7.0 | 0.00 | 0.04 | 0.04 | 37 | 1004.6 |
| 20260503225003 | 72 | 173 | 1.7 | 7.0 | 0.00 | 0.04 | 0.04 | 39 | 1004.5 |
| 20260503224507 | 72 | 255 | 2.6 | 9.6 | 0.00 | 0.04 | 0.04 | 37 | 1004.7 |
| 20260503224002 | 72 | 188 | 1.7 | 9.6 | 0.00 | 0.04 | 0.04 | 37 | 1004.7 |
| 20260503223505 | 72 | 241 | 2.6 | 7.8 | 0.00 | 0.04 | 0.04 | 38 | 1004.8 |
| 20260503223007 | 71 | 227 | 2.6 | 8.7 | 0.00 | 0.04 | 0.04 | 38 | 1004.9 |
| 20260503222505 | 71 | 180 | 2.6 | 8.7 | 0.00 | 0.04 | 0.04 | 37 | 1004.9 |
| 20260503222003 | 71 | 180 | 3.5 | 8.7 | 0.00 | 0.04 | 0.04 | 39 | 1004.9 |
| 20260503221504 | 71 | 163 | 3.5 | 11.3 | 0.00 | 0.04 | 0.04 | 37 | 1004.9 |
| 20260503221006 | 72 | 212 | 3.5 | 11.3 | 0.00 | 0.04 | 0.04 | 36 | 1005.0 |
| 20260503220505 | 72 | 241 | 3.5 | 8.7 | 0.00 | 0.04 | 0.04 | 36 | 1004.9 |
| 20260503220012 | 72 | 301 | 3.5 | 14.8 | 0.00 | 0.04 | 0.04 | 38 | 1004.9 |
| 20260503215504 | 71 | 186 | 3.5 | 14.8 | 0.00 | 0.04 | 0.04 | 37 | 1004.9 |
| 20260503215003 | 71 | 170 | 2.6 | 8.7 | 0.00 | 0.04 | 0.04 | 39 | 1004.8 |
| 20260503214529 | 71 | 263 | 4.3 | 12.2 | 0.00 | 0.04 | 0.04 | 37 | 1004.9 |
| 20260503214003 | 71 | 252 | 2.6 | 12.2 | 0.00 | 0.04 | 0.04 | 39 | 1004.9 |
| 20260503213503 | 71 | 183 | 3.5 | 9.6 | 0.00 | 0.04 | 0.04 | 38 | 1004.9 |
| 20260503213027 | 70 | 217 | 4.3 | 12.2 | 0.00 | 0.04 | 0.04 | 39 | 1004.9 |
| 20260503212504 | 70 | 176 | 5.2 | 12.2 | 0.00 | 0.04 | 0.04 | 39 | 1004.9 |
| 20260503212006 | 71 | 192 | 4.3 | 10.4 | 0.00 | 0.04 | 0.04 | 38 | 1005.1 |
| 20260503211516 | 70 | 227 | 3.5 | 11.3 | 0.00 | 0.04 | 0.04 | 38 | 1005.1 |
| 20260503211003 | 70 | 290 | 4.3 | 11.3 | 0.00 | 0.04 | 0.04 | 39 | 1005.2 |
| 20260503210509 | 71 | 250 | 5.2 | 11.3 | 0.00 | 0.04 | 0.04 | 37 | 1005.2 |
| 20260503210017 | 71 | 265 | 3.5 | 12.2 | 0.00 | 0.04 | 0.04 | 39 | 1005.2 |
| 20260503205503 | 70 | 280 | 6.1 | 12.2 | 0.00 | 0.04 | 0.04 | 38 | 1005.4 |
| 20260503205010 | 70 | 279 | 3.5 | 7.0 | 0.00 | 0.04 | 0.04 | 42 | 1005.4 |
| 20260503204514 | 70 | 248 | 2.6 | 10.4 | 0.00 | 0.04 | 0.04 | 40 | 1005.4 |
| 20260503204003 | 70 | 182 | 3.5 | 10.4 | 0.00 | 0.04 | 0.04 | 42 | 1005.5 |
| 20260503203508 | 69 | 177 | 2.6 | 15.6 | 0.00 | 0.04 | 0.04 | 41 | 1005.6 |
| 20260503203011 | 69 | 237 | 5.2 | 15.6 | 0.00 | 0.04 | 0.04 | 41 | 1005.7 |
| 20260503202511 | 68 | 209 | 5.2 | 10.4 | 0.00 | 0.04 | 0.04 | 42 | 1005.7 |
| 20260503202006 | 68 | 202 | 3.5 | 17.4 | 0.00 | 0.04 | 0.04 | 41 | 1005.8 |
| 20260503201504 | 68 | 172 | 3.5 | 17.4 | 0.00 | 0.04 | 0.04 | 43 | 1005.9 |
| 20260503201004 | 67 | 217 | 2.6 | 15.6 | 0.00 | 0.04 | 0.04 | 46 | 1006.0 |
| 20260503200504 | 67 | 228 | 4.3 | 15.6 | 0.00 | 0.04 | 0.04 | 42 | 1006.1 |
| 20260503200003 | 67 | 229 | 4.3 | 13.0 | 0.00 | 0.04 | 0.04 | 43 | 1006.1 |
| 20260503195508 | 67 | 208 | 5.2 | 15.6 | 0.00 | 0.04 | 0.04 | 42 | 1006.2 |
| 20260503195003 | 67 | 214 | 7.8 | 15.6 | 0.00 | 0.04 | 0.04 | 43 | 1006.3 |
| 20260503194522 | 67 | 217 | 4.3 | 13.9 | 0.00 | 0.04 | 0.04 | 44 | 1006.4 |
| 20260503194003 | 67 | 157 | 3.5 | 14.8 | 0.00 | 0.04 | 0.04 | 44 | 1006.4 |
| 20260503193504 | 66 | 275 | 7.0 | 16.5 | 0.00 | 0.04 | 0.04 | 42 | 1006.5 |
| 20260503193020 | 66 | 189 | 5.2 | 18.2 | 0.00 | 0.04 | 0.04 | 47 | 1006.6 |
| 20260503192504 | 66 | 181 | 5.2 | 15.6 | 0.00 | 0.04 | 0.04 | 42 | 1006.6 |
| 20260503192002 | 65 | 204 | 5.2 | 16.5 | 0.00 | 0.04 | 0.04 | 42 | 1006.7 |
| 20260503191514 | 65 | 219 | 6.1 | 16.5 | 0.00 | 0.04 | 0.04 | 47 | 1006.9 |
| 20260503191004 | 65 | 214 | 3.5 | 13.0 | 0.00 | 0.04 | 0.04 | 48 | 1007.0 |
| 20260503190507 | 65 | 150 | 5.2 | 13.0 | 0.00 | 0.04 | 0.04 | 46 | 1007.1 |
| 20260503190016 | 65 | 211 | 5.2 | 12.2 | 0.00 | 0.04 | 0.04 | 46 | 1007.2 |
| 20260503185504 | 64 | 159 | 7.0 | 12.2 | 0.00 | 0.04 | 0.04 | 45 | 1007.3 |
| 20260503185004 | 65 | 173 | 5.2 | 12.2 | 0.00 | 0.04 | 0.04 | 45 | 1007.3 |
| 20260503184512 | 64 | 200 | 4.3 | 14.8 | 0.00 | 0.04 | 0.04 | 44 | 1007.4 |
| 20260503184003 | 64 | 218 | 7.0 | 14.8 | 0.00 | 0.04 | 0.04 | 46 | 1007.5 |
| 20260503183506 | 64 | 186 | 4.3 | 13.9 | 0.00 | 0.04 | 0.04 | 46 | 1007.4 |
| 20260503183007 | 64 | 186 | 6.1 | 13.9 | 0.00 | 0.04 | 0.04 | 45 | 1007.6 |
| 20260503182509 | 63 | 169 | 7.8 | 13.9 | 0.00 | 0.04 | 0.04 | 46 | 1007.6 |
| 20260503182005 | 63 | 229 | 7.0 | 13.0 | 0.00 | 0.04 | 0.04 | 44 | 1007.8 |
| 20260503181517 | 63 | 205 | 4.3 | 17.4 | 0.00 | 0.04 | 0.04 | 45 | 1007.9 |
| 20260503181008 | 63 | 169 | 7.0 | 14.8 | 0.00 | 0.04 | 0.04 | 47 | 1008.0 |
| 20260503180505 | 63 | 213 | 6.1 | 15.6 | 0.00 | 0.04 | 0.04 | 44 | 1008.2 |
| 20260503180014 | 63 | 171 | 4.3 | 15.6 | 0.00 | 0.04 | 0.04 | 47 | 1008.1 |
| 20260503175511 | 64 | 197 | 1.7 | 14.8 | 0.00 | 0.04 | 0.04 | 46 | 1008.1 |
| 20260503175004 | 64 | 232 | 4.3 | 17.4 | 0.00 | 0.04 | 0.04 | 49 | 1008.2 |
| 20260503174523 | 63 | 178 | 6.1 | 18.2 | 0.00 | 0.04 | 0.04 | 45 | 1008.0 |
| 20260503174005 | 63 | 180 | 7.8 | 21.7 | 0.00 | 0.04 | 0.04 | 48 | 1008.2 |
| 20260503173503 | 63 | 171 | 5.2 | 21.7 | 0.00 | 0.04 | 0.04 | 48 | 1008.2 |
| 20260503173020 | 62 | 181 | 7.8 | 17.4 | 0.00 | 0.04 | 0.04 | 46 | 1008.1 |
| 20260503172507 | 62 | 185 | 8.7 | 20.0 | 0.00 | 0.04 | 0.04 | 48 | 1008.3 |
| 20260503172002 | 61 | 181 | 8.7 | 20.0 | 0.00 | 0.04 | 0.04 | 51 | 1008.3 |
| 20260503171524 | 61 | 195 | 7.0 | 16.5 | 0.00 | 0.04 | 0.04 | 51 | 1008.5 |
| 20260503171004 | 61 | 178 | 8.7 | 18.2 | 0.00 | 0.04 | 0.04 | 53 | 1008.6 |
| 20260503170508 | 60 | 201 | 7.0 | 17.4 | 0.00 | 0.04 | 0.04 | 56 | 1008.6 |
| 20260503151005 | 50 | 181 | 6.1 | 13.0 | 0.00 | 0.04 | 0.04 | 65 | 1010.2 |
| 20260503150510 | 50 | 159 | 5.2 | 13.9 | 0.00 | 0.04 | 0.04 | 67 | 1010.4 |
| 20260503131003 | 48 | 153 | 3.5 | 10.4 | 0.00 | 0.00 | 0.00 | 76 | 1012.6 |
| 20260503130507 | 49 | 170 | 3.5 | 8.7 | 0.00 | 0.00 | 0.00 | 76 | 1012.7 |
| 20260503110516 | 45 | 183 | 0.9 | 6.1 | 0.00 | 0.00 | 0.00 | 63 | 1012.3 |
| 20260503090504 | 46 | 199 | 1.7 | 6.1 | 0.00 | 0.00 | 0.00 | 58 | 1012.8 |
| 20260503081512 | 46 | 216 | 1.7 | 5.2 | 0.00 | 0.00 | 0.00 | 57 | 1013.1 |
| 20260503081003 | 46 | 198 | 2.6 | 5.2 | 0.00 | 0.00 | 0.00 | 56 | 1013.1 |
| 20260503080507 | 46 | 169 | 1.7 | 4.3 | 0.00 | 0.00 | 0.00 | 56 | 1013.2 |
| 20260503072508 | 46 | 227 | 1.7 | 7.0 | 0.00 | 0.00 | 0.00 | 56 | 1013.3 |
| 20260503072005 | 46 | 199 | 0.9 | 5.2 | 0.00 | 0.00 | 0.00 | 56 | 1013.5 |
| 20260503071505 | 46 | 173 | 0.9 | 7.0 | 0.00 | 0.00 | 0.00 | 56 | 1013.5 |
| 20260503071006 | 46 | 219 | 1.7 | 7.0 | 0.00 | 0.00 | 0.00 | 56 | 1013.5 |
| 20260503070504 | 46 | 200 | 1.7 | 5.2 | 0.00 | 0.00 | 0.00 | 55 | 1013.5 |
| 20260503055005 | 47 | 178 | 0.9 | 5.2 | 0.00 | 0.00 | 0.00 | 55 | 1014.1 |
| 20260503054514 | 47 | 191 | 0.9 | 4.3 | 0.00 | 0.00 | 0.00 | 55 | 1014.0 |
| 20260503054009 | 47 | 204 | 0.9 | 4.3 | 0.00 | 0.00 | 0.00 | 55 | 1014.1 |
| 20260503053505 | 47 | 184 | 0.9 | 5.2 | 0.00 | 0.00 | 0.00 | 54 | 1014.1 |
| 20260503053014 | 47 | 194 | 1.7 | 5.2 | 0.00 | 0.00 | 0.00 | 54 | 1014.1 |
| 20260503052507 | 47 | 186 | 0.9 | 5.2 | 0.00 | 0.00 | 0.00 | 54 | 1014.1 |